Temp
70 70 68 71 66 57 59 61 56 60 56 55 43 45 46 47 40 41 41 48 46 51 58 58 57 59 59 62 63 65 64 65 64 64 65 65 65 65 64 64 65 65 63 62 63 64 64 64 64 64 65 65 65 65 65 65 65 64 63 65 64 64 64
71 67 69 67 65 65 61 56 57 60 58 55 51 47 40 35 41 39 42 45 42 46 48 52 58 55 58 60 61 64 63 63 63 65 65 65 65 65 65 65 65 65 64 64 63 64 65 65 65 64 65 65 64 65 65 64 65 65 65 63 64 64 64
70 65 66 68 68 68 65 63 65 62 54 56 48 46 40 43 41 36 35 43 43 45 49 49 53 55 56 58 59 61 61 62 64 65 65 65 64 64 63 64 64 64 63 63 63 64 65 64 65 64 65 65 64 63 64 63 64 64 64 64 64 64 63
67 64 62 58 62 69 67 67 64 59 51 40 49 49 41 43 41 39 39 40 44 48 49 53 57 57 58 58 58 60 63 63 64 65 66 64 63 63 64 64 64 64 64 64 65 65 65 64 64 65 65 65 66 64 65 66 65 64 63 63 63 64 63
66 61 61 59 59 57 60 59 54 59 53 54 56 51 51 49 36 35 34 38 39 48 52 55 60 59 60 61 60 61 63 64 65 66 66 64 63 63 64 64 65 64 64 64 64 65 65 64 65 66 65 66 66 65 64 64 64 64 64 64 63 63 64
57 53 57 63 61 65 63 60 57 58 53 53 51 45 45 46 46 36 35 43 42 50 53 59 62 60 62 63 63 62 63 64 65 66 66 65 63 63 64 65 66 65 64 62 63 64 64 63 64 66 65 65 65 65 65 65 64 64 64 64 64 63 64
56 62 64 63 64 62 59 65 60 56 51 50 39 45 44 46 48 46 39 43 45 52 51 56 59 60 63 64 64 63 63 64 65 65 66 64 64 64 65 65 65 64 63 62 63 64 64 64 65 65 65 64 65 65 65 64 64 65 65 65 63 63 63
50 62 62 62 62 64 65 61 56 57 57 53 55 45 43 47 46 47 45 42 41 46 52 53 56 58 61 62 63 63 64 64 64 63 62 62 62 63 64 64 63 62 61 61 62 63 63 63 63 63 64 64 64 64 65 65 64 65 65 64 64 63 63
42 47 50 58 57 60 54 56 57 55 56 55 52 49 48 50 46 47 43 40 38 50 52 53 57 60 62 63 63 63 63 62 63 62 61 61 63 62 62 62 61 60 60 61 62 63 63 63 63 63 63 63 63 64 64 64 64 65 64 64 64 63 63
42 41 41 41 50 58 57 58 59 58 58 55 56 56 51 45 41 45 42 41 42 49 52 56 56 57 60 61 62 63 62 62 61 61 61 61 62 62 62 61 59 60 61 61 61 62 63 63 63 63 63 63 63 63 63 64 64 63 63 64 64 63 63
48 53 48 49 50 54 56 59 57 58 55 54 52 45 42 48 35 46 37 45 51 52 56 55 56 56 59 61 59 61 61 60 60 61 61 62 62 62 62 61 60 60 59 61 62 62 63 63 62 63 63 63 63 63 63 63 62 63 63 62 62 62 63
56 51 46 56 59 59 54 57 59 57 55 54 54 52 49 44 47 41 36 35 51 56 58 55 55 56 57 59 60 60 59 60 61 61 61 64 61 61 60 60 59 60 61 61 61 62 62 62 62 62 62 63 63 63 63 63 62 62 63 62 62 62 61
48 51 53 57 58 58 54 55 56 57 55 54 56 49 49 50 51 51 44 39 49 52 58 63 60 60 60 62 63 63 61 60 60 60 61 61 61 61 60 60 59 60 61 62 62 62 62 62 62 62 62 62 61 60 61 62 62 62 62 61 61 61 61
54 52 53 54 57 56 57 58 55 55 55 55 56 53 49 55 52 52 54 44 51 56 58 60 60 60 61 60 59 60 60 60 61 61 60 61 61 61 61 60 60 60 62 62 63 63 62 61 61 62 61 62 62 62 62 62 61 62 61 61 61 61 61
54 52 53 55 54 55 57 55 54 53 52 53 52 54 54 54 52 53 52 49 51 57 59 62 56 57 57 57 59 61 61 60 61 61 60 61 62 62 62 61 60 61 61 62 62 62 62 61 61 62 62 62 62 61 62 62 61 62 61 61 61 61 62
49 53 55 54 53 54 55 52 50 51 53 55 51 54 53 52 51 47 51 50 48 58 53 54 56 56 58 59 58 58 59 60 61 61 61 62 62 62 62 61 61 60 61 61 61 62 61 62 61 62 62 62 61 61 62 62 63 62 60 60 61 61 62
43 49 51 52 48 54 52 53 56 58 52 54 56 56 55 57 59 53 50 50 54 54 53 56 55 56 58 58 59 59 58 59 61 62 62 62 63 63 62 61 62 61 62 62 62 62 62 62 62 62 63 62 62 62 62 63 62 61 61 61 61 61 62
40 49 47 51 51 42 42 48 52 56 59 55 56 57 58 54 56 54 56 60 55 50 52 57 56 55 57 61 62 63 62 60 60 62 63 64 64 63 62 62 63 63 63 63 63 63 63 63 64 65 64 63 64 64 64 62 61 61 61 61 61 62 62
48 49 51 49 41 44 52 51 53 56 61 57 58 56 55 57 53 54 56 57 55 56 57 56 56 58 58 61 61 62 63 64 63 63 63 63 62 61 62 61 62 63 63 63 62 61 62 64 64 63 63 63 64 62 61 61 61 61 60 61 61 61 61
44 46 42 38 36 42 50 54 56 58 58 56 56 54 53 52 55 55 55 59 58 55 55 55 55 58 58 58 60 61 61 63 64 64 64 63 62 62 63 63 63 62 62 62 62 63 65 65 64 64 64 64 63 63 62 61 62 61 61 61 61 61 61
45 40 43 48 45 52 55 59 61 58 58 53 55 52 49 52 52 55 54 54 53 55 55 55 56 57 58 57 58 60 61 62 64 66 67 66 64 65 65 65 65 64 64 64 64 65 64 64 64 63 65 64 63 63 63 62 61 61 60 60 61 62 63
39 40 41 42 45 43 42 49 59 58 61 61 55 58 51 51 54 56 59 56 54 54 54 56 57 58 57 57 58 61 62 62 63 62 64 65 65 65 65 63 63 62 63 63 64 65 64 63 64 65 65 64 63 62 63 63 62 62 60 61 62 62 63
46 44 40 36 40 43 49 56 61 61 58 60 54 53 49 50 54 57 59 57 55 56 56 56 58 57 53 53 57 61 61 62 65 65 64 65 65 64 64 64 64 63 63 63 64 65 63 63 64 64 64 63 62 62 63 63 62 61 62 62 62 62 63
43 41 41 41 42 51 54 55 55 56 57 60 58 48 40 50 52 56 58 58 56 56 57 58 59 59 53 55 59 59 63 65 65 65 64 62 62 62 63 63 65 65 65 64 64 63 63 64 65 63 63 62 63 63 64 63 62 62 63 63 64 63 64
45 49 41 38 44 51 54 55 57 58 60 63 49 43 50 50 52 57 59 59 58 57 57 59 59 60 57 56 58 59 62 64 63 63 64 64 64 64 64 65 67 64 64 64 65 65 65 65 64 63 62 62 62 64 64 62 62 63 64 64 63 63 63
44 41 42 46 46 48 57 57 57 60 62 48 47 56 54 58 58 56 60 59 58 59 60 61 61 62 60 59 59 60 62 66 65 64 64 64 64 65 67 68 68 64 64 63 63 65 64 64 63 62 62 62 63 63 62 62 64 66 64 63 63 62 62
40 40 43 40 39 51 59 62 60 64 56 54 55 52 57 56 57 58 58 60 59 60 59 61 59 58 61 61 61 60 61 62 63 63 63 63 64 65 64 64 67 67 63 63 63 65 65 64 63 62 62 62 63 63 62 63 65 64 63 62 62 62 62
46 40 38 40 50 49 58 66 58 58 62 53 55 60 58 58 57 59 58 58 61 62 63 62 60 57 58 61 60 60 60 61 62 62 62 63 64 65 67 69 67 68 64 64 64 63 64 63 61 61 61 63 63 63 63 65 64 63 63 62 61 61 62
48 44 46 51 49 55 57 56 56 53 58 58 61 62 64 61 58 57 62 61 61 62 63 62 60 59 59 60 60 61 62 61 61 62 63 63 64 65 66 67 67 67 65 64 63 62 62 61 60 61 61 63 64 63 65 65 63 63 62 62 61 62 62
49 50 55 54 54 53 57 58 57 58 60 60 61 63 62 63 59 60 62 62 61 60 59 62 57 60 61 59 60 59 59 60 59 60 60 61 61 63 63 63 64 66 63 63 62 62 62 60 60 61 60 61 63 64 65 65 63 62 62 62 62 62 62
52 48 50 52 55 55 55 57 60 59 59 60 58 60 60 58 58 58 58 61 61 61 60 63 61 59 58 58 57 57 57 58 58 59 60 61 61 62 63 64 65 63 61 61 61 62 63 62 60 61 60 60 63 64 63 63 62 62 62 62 62 62 62
52 49 52 56 56 54 57 54 57 62 61 59 58 58 58 58 58 58 58 59 59 59 60 58 59 59 56 59 59 57 57 58 58 57 58 59 59 59 59 61 64 60 60 61 62 61 62 62 60 61 61 61 62 62 63 64 64 63 62 63 62 62 62
48 50 55 55 56 58 58 59 58 58 59 59 60 60 60 61 61 59 59 60 61 62 62 57 61 60 57 57 56 57 56 56 56 58 58 57 58 57 60 59 62 59 60 60 60 61 62 62 60 60 60 60 62 61 62 63 61 61 62 64 64 62 61
46 50 53 53 57 52 53 60 60 61 60 62 60 60 62 62 61 61 62 59 57 58 58 58 60 61 59 57 55 58 57 57 56 55 55 56 57 57 57 58 59 60 61 60 60 60 61 60 59 59 59 60 60 62 62 62 61 61 63 63 62 62 61
48 56 56 53 52 53 56 59 60 59 60 62 63 63 62 60 61 62 62 60 59 59 58 57 60 58 58 58 55 57 58 56 54 55 56 57 56 57 58 58 57 58 58 61 60 60 60 60 60 60 60 60 60 61 60 60 60 61 61 62 63 62 62
57 60 60 55 56 61 60 58 58 59 57 58 62 62 61 61 60 61 63 63 62 58 58 58 58 60 57 56 56 59 58 56 56 56 55 55 57 58 57 58 57 58 58 59 59 60 58 59 59 58 59 59 59 60 61 61 60 61 61 61 61 62 62
59 64 56 55 55 55 56 58 58 56 58 60 60 61 61 61 61 61 62 59 61 63 59 60 59 56 58 56 55 56 56 52 52 53 57 59 58 58 57 57 58 58 58 58 57 56 56 57 57 58 58 59 59 60 61 61 61 60 60 60 61 62 61
MSLP
1009.08 1009.28 1009.72 1009.72 1009.60 1014.16 1013.80 1013.92 1013.96 1014.04 1013.88 1013.96 1018.72 1020.32 1021.16 1020.24 1019.32 1018.92 1019.76 1017.88 1017.32 1015.92 1015.04 1014.96 1014.96 1015.00 1015.08 1014.92 1014.68 1014.60 1014.96 1015.16 1015.44 1015.68 1015.68 1015.64 1015.68 1015.84 1015.96 1016.04 1015.88 1015.80 1016.08 1016.16 1016.16 1016.16 1016.20 1016.24 1016.32 1016.28 1016.24 1016.28 1016.24 1016.28 1016.28 1016.28 1016.28 1016.40 1016.40 1016.36 1016.28 1016.24 1016.24
1009.88 1009.24 1009.60 1009.48 1010.08 1010.48 1012.52 1014.44 1013.60 1013.68 1013.96 1013.44 1014.72 1018.24 1019.68 1020.04 1021.04 1019.16 1020.24 1018.28 1017.56 1017.92 1015.76 1015.56 1015.60 1015.60 1015.80 1015.28 1015.28 1014.88 1015.12 1015.32 1015.56 1015.40 1015.36 1015.28 1015.40 1015.44 1015.60 1015.76 1015.68 1015.64 1015.76 1015.88 1016.12 1016.20 1016.00 1015.96 1015.96 1016.04 1016.04 1016.08 1016.16 1016.20 1016.20 1016.20 1016.28 1016.32 1016.28 1016.36 1016.32 1016.24 1016.20
1009.80 1009.48 1009.00 1010.08 1010.04 1010.68 1010.60 1011.40 1011.44 1013.00 1015.60 1016.12 1016.60 1016.80 1020.64 1020.28 1020.60 1019.36 1019.12 1020.80 1020.00 1018.80 1015.88 1015.40 1015.16 1015.96 1015.92 1015.72 1015.44 1015.36 1015.52 1015.48 1015.20 1015.08 1015.00 1015.04 1015.28 1015.64 1015.80 1015.80 1015.76 1015.80 1015.80 1015.84 1015.96 1015.88 1015.88 1015.88 1015.84 1015.84 1015.84 1016.00 1016.16 1016.24 1016.24 1016.28 1016.28 1016.24 1016.24 1016.28 1016.28 1016.20 1016.16
1010.36 1009.92 1010.36 1013.64 1012.68 1010.92 1010.92 1010.60 1012.04 1013.44 1012.92 1014.68 1016.08 1016.08 1016.80 1017.60 1020.32 1021.84 1019.12 1020.48 1016.80 1016.24 1014.88 1013.24 1012.28 1014.04 1015.12 1015.52 1015.76 1015.16 1014.64 1014.52 1014.56 1014.56 1014.60 1014.88 1015.28 1015.44 1015.60 1015.60 1015.56 1015.52 1015.52 1015.64 1015.72 1015.68 1015.72 1015.76 1015.80 1015.80 1015.92 1016.04 1016.12 1016.12 1016.24 1016.28 1016.32 1016.32 1016.28 1016.24 1016.16 1016.04 1016.00
1011.04 1012.68 1011.32 1012.08 1011.92 1013.28 1013.28 1012.60 1014.08 1013.36 1014.80 1015.56 1015.16 1016.64 1016.88 1016.68 1018.72 1019.64 1019.96 1019.44 1017.04 1013.64 1013.60 1012.80 1011.68 1013.04 1014.20 1014.32 1014.56 1014.52 1014.36 1014.16 1013.96 1013.80 1014.00 1014.52 1015.00 1015.20 1015.28 1015.28 1015.32 1015.32 1015.36 1015.64 1015.76 1015.64 1015.60 1015.72 1015.80 1015.88 1015.92 1015.96 1015.96 1016.08 1016.16 1016.24 1016.36 1016.28 1016.28 1016.16 1016.08 1015.88 1015.84
1012.68 1011.80 1011.76 1011.40 1011.24 1010.20 1010.80 1012.08 1012.88 1013.00 1015.08 1015.36 1017.28 1017.88 1018.84 1017.80 1017.12 1019.72 1020.04 1019.24 1015.48 1011.92 1013.20 1011.60 1011.16 1012.76 1013.60 1013.44 1013.44 1013.84 1013.72 1013.68 1013.68 1013.72 1013.80 1014.16 1014.76 1014.84 1014.84 1014.96 1015.00 1015.16 1015.28 1015.60 1015.72 1015.68 1015.68 1015.80 1015.88 1015.88 1015.88 1015.96 1016.00 1016.04 1016.08 1016.20 1016.32 1016.32 1016.28 1016.12 1015.96 1015.80 1015.80
1012.20 1011.68 1010.52 1011.44 1010.88 1011.20 1010.76 1011.20 1011.76 1013.16 1013.44 1013.60 1014.92 1017.96 1017.68 1018.68 1018.32 1018.84 1019.04 1019.08 1015.60 1011.56 1012.96 1013.16 1012.68 1012.68 1012.76 1012.92 1013.28 1013.60 1013.52 1013.52 1013.52 1013.52 1013.68 1014.12 1014.24 1014.40 1014.60 1014.68 1014.84 1014.96 1015.16 1015.32 1015.44 1015.44 1015.56 1015.68 1015.68 1015.76 1015.84 1015.88 1015.88 1015.92 1016.00 1016.12 1016.20 1016.12 1016.04 1015.92 1015.80 1015.80 1015.76
1012.16 1011.36 1011.28 1011.12 1011.20 1010.64 1011.56 1012.16 1013.32 1012.92 1012.52 1012.36 1013.12 1013.48 1014.80 1015.80 1018.64 1018.48 1019.24 1018.76 1015.48 1011.72 1013.24 1013.16 1012.88 1012.52 1012.56 1012.60 1012.72 1012.88 1013.16 1013.36 1013.56 1013.72 1013.96 1014.20 1014.40 1014.60 1014.52 1014.64 1014.88 1015.08 1015.24 1015.44 1015.52 1015.56 1015.68 1015.72 1015.80 1015.80 1015.76 1015.76 1015.84 1015.84 1015.88 1015.96 1016.08 1015.96 1015.88 1015.76 1015.68 1015.72 1015.72
1013.80 1012.48 1011.36 1011.32 1010.84 1010.80 1012.00 1011.88 1012.76 1012.92 1013.20 1013.48 1014.72 1014.80 1016.08 1015.72 1016.88 1015.60 1017.08 1019.00 1015.28 1012.08 1012.92 1012.72 1012.76 1012.40 1012.56 1012.48 1012.44 1012.52 1013.00 1013.32 1013.44 1013.68 1014.00 1014.20 1014.20 1014.40 1014.56 1014.72 1014.92 1015.16 1015.36 1015.44 1015.28 1015.40 1015.52 1015.56 1015.64 1015.72 1015.72 1015.72 1015.76 1015.72 1015.72 1015.84 1015.84 1015.76 1015.72 1015.64 1015.68 1015.64 1015.68
1017.96 1018.24 1017.88 1015.96 1013.56 1012.56 1012.28 1013.00 1013.08 1013.00 1012.60 1013.12 1013.68 1014.84 1015.88 1016.40 1017.44 1018.08 1016.76 1016.16 1013.04 1011.88 1012.48 1012.12 1012.60 1012.76 1012.56 1012.44 1012.40 1012.52 1012.56 1012.96 1013.36 1013.76 1013.96 1014.08 1014.20 1014.24 1014.32 1014.64 1014.96 1015.04 1015.12 1015.12 1015.20 1015.36 1015.44 1015.48 1015.48 1015.52 1015.56 1015.60 1015.60 1015.56 1015.56 1015.60 1015.68 1015.64 1015.56 1015.52 1015.56 1015.56 1015.60
1014.16 1012.44 1011.56 1012.08 1012.84 1012.36 1012.88 1013.28 1012.64 1012.72 1013.68 1013.76 1013.36 1014.56 1015.68 1015.88 1016.84 1017.40 1014.96 1014.16 1013.04 1012.04 1011.36 1011.80 1011.88 1012.92 1012.48 1012.32 1012.56 1012.40 1012.56 1012.84 1013.24 1013.52 1013.72 1013.84 1014.00 1014.04 1014.20 1014.40 1014.64 1015.04 1015.28 1015.08 1015.00 1015.16 1015.20 1015.20 1015.32 1015.36 1015.32 1015.40 1015.40 1015.44 1015.44 1015.44 1015.44 1015.44 1015.36 1015.40 1015.36 1015.40 1015.40
1010.36 1011.84 1011.48 1012.44 1012.20 1011.68 1012.32 1012.72 1012.88 1013.40 1012.92 1013.12 1012.84 1014.20 1014.60 1014.84 1016.20 1016.68 1014.20 1014.20 1014.32 1012.56 1011.04 1010.88 1011.40 1012.32 1012.96 1012.64 1012.56 1012.60 1012.60 1012.60 1012.76 1013.20 1013.64 1013.88 1014.04 1014.16 1014.32 1014.56 1014.76 1014.76 1014.72 1014.84 1014.92 1014.96 1015.04 1015.08 1015.16 1015.28 1015.24 1015.16 1015.08 1015.16 1015.20 1015.16 1015.20 1015.28 1015.24 1015.24 1015.24 1015.24 1015.28
1012.16 1013.00 1012.44 1012.92 1012.08 1011.92 1012.28 1012.08 1012.52 1012.76 1012.84 1013.56 1013.56 1013.64 1013.80 1014.36 1014.44 1015.40 1012.80 1014.28 1014.00 1012.28 1011.04 1009.68 1010.04 1010.52 1010.88 1011.32 1011.32 1011.72 1012.12 1012.76 1013.16 1013.40 1013.52 1013.72 1013.92 1014.00 1014.16 1014.24 1014.56 1014.60 1014.56 1014.56 1014.68 1014.80 1014.80 1014.92 1015.08 1015.08 1015.08 1015.00 1015.04 1015.16 1015.20 1015.08 1015.08 1015.08 1015.04 1015.16 1015.08 1015.08 1015.12
1012.96 1013.04 1012.88 1012.60 1011.92 1012.32 1012.32 1012.32 1012.28 1012.60 1012.92 1013.00 1012.92 1012.88 1013.72 1013.68 1013.24 1012.52 1013.16 1014.52 1013.36 1011.64 1010.24 1009.52 1009.60 1010.56 1011.04 1011.28 1011.28 1011.60 1011.84 1012.32 1012.68 1013.04 1013.28 1013.48 1013.64 1013.72 1013.76 1014.08 1014.28 1014.36 1014.24 1014.36 1014.48 1014.56 1014.72 1014.84 1014.92 1014.92 1014.80 1014.72 1014.76 1014.84 1014.84 1014.84 1014.88 1014.76 1015.00 1014.96 1014.88 1014.84 1014.84
1012.76 1013.16 1013.08 1012.84 1012.40 1012.32 1012.60 1012.60 1012.84 1012.80 1014.28 1014.08 1013.56 1013.40 1013.68 1014.68 1014.52 1013.80 1013.96 1014.56 1014.00 1011.48 1010.52 1010.04 1010.52 1010.92 1011.16 1011.40 1011.36 1011.36 1011.56 1012.16 1012.48 1012.72 1013.04 1013.20 1013.28 1013.28 1013.52 1014.00 1014.12 1014.16 1014.28 1014.32 1014.44 1014.56 1014.52 1014.68 1014.64 1014.40 1014.28 1014.32 1014.52 1014.68 1014.68 1014.64 1014.60 1014.48 1014.72 1014.64 1014.56 1014.56 1014.48
1013.28 1013.36 1012.92 1012.92 1013.20 1013.04 1013.20 1012.88 1012.80 1012.88 1013.28 1013.52 1013.48 1013.68 1013.20 1013.28 1013.44 1013.24 1014.28 1014.44 1013.48 1009.96 1010.52 1011.60 1011.60 1011.24 1011.08 1011.00 1011.28 1011.64 1011.88 1012.04 1012.28 1012.52 1012.68 1012.80 1012.92 1013.08 1013.32 1013.60 1013.84 1014.04 1014.08 1014.24 1014.28 1014.20 1014.28 1014.36 1014.28 1014.00 1014.00 1014.12 1014.36 1014.40 1014.36 1014.44 1014.24 1014.28 1014.48 1014.36 1014.28 1014.24 1014.24
1013.56 1013.88 1013.92 1013.00 1012.96 1013.04 1014.12 1013.28 1011.64 1011.24 1012.12 1012.16 1012.28 1012.64 1012.96 1011.80 1011.60 1013.24 1013.84 1013.24 1010.24 1009.88 1011.68 1010.60 1010.88 1011.28 1011.12 1011.36 1011.28 1011.48 1011.96 1011.84 1011.76 1011.96 1012.12 1012.28 1012.40 1012.56 1012.92 1013.28 1013.40 1013.56 1013.60 1013.60 1013.60 1013.72 1014.00 1014.00 1013.72 1013.44 1013.48 1013.88 1014.00 1013.88 1014.12 1013.92 1014.04 1014.24 1014.08 1014.00 1014.04 1014.04 1013.96
1013.48 1013.96 1013.96 1014.32 1014.28 1017.08 1015.80 1010.60 1009.72 1010.28 1011.28 1011.44 1012.16 1011.80 1011.24 1011.32 1011.76 1011.28 1010.84 1010.12 1010.60 1011.44 1011.44 1010.56 1009.84 1010.88 1010.80 1010.16 1010.04 1009.96 1010.36 1011.40 1011.92 1011.92 1011.72 1011.60 1011.76 1012.16 1012.64 1012.80 1012.84 1012.96 1013.20 1013.28 1013.36 1013.36 1013.32 1013.16 1012.80 1012.76 1013.28 1013.40 1013.36 1013.52 1013.72 1013.84 1014.00 1013.84 1013.80 1013.72 1013.84 1013.72 1013.76
1013.68 1014.52 1014.40 1015.16 1017.32 1015.96 1011.12 1010.96 1011.68 1011.16 1010.64 1010.76 1011.16 1010.72 1010.76 1010.40 1011.32 1011.44 1011.32 1010.64 1010.16 1009.48 1010.72 1011.20 1011.32 1011.28 1011.00 1010.48 1010.52 1010.44 1010.36 1010.48 1010.68 1011.00 1011.32 1011.56 1011.92 1012.28 1012.44 1012.64 1012.80 1012.84 1012.80 1012.92 1013.16 1013.44 1013.32 1012.92 1012.80 1013.00 1013.24 1013.32 1013.40 1013.60 1013.72 1013.76 1013.68 1013.68 1013.64 1013.60 1013.64 1013.64 1013.60
1014.88 1015.28 1015.20 1017.64 1015.60 1012.48 1011.84 1010.88 1010.48 1011.48 1011.76 1012.00 1012.00 1011.88 1010.44 1010.04 1010.16 1010.80 1011.24 1010.12 1010.20 1011.28 1011.56 1011.20 1010.96 1010.72 1010.64 1010.40 1010.40 1010.60 1010.40 1010.36 1010.68 1011.08 1011.28 1011.48 1011.92 1012.16 1012.08 1011.88 1012.16 1012.44 1012.64 1012.60 1012.64 1012.60 1012.52 1012.60 1012.68 1012.84 1012.76 1012.96 1013.40 1013.36 1013.40 1013.52 1013.48 1013.52 1013.52 1013.56 1013.48 1013.48 1013.48
1014.00 1014.92 1015.12 1014.20 1013.60 1013.08 1011.32 1011.12 1010.08 1010.12 1010.20 1011.00 1011.20 1012.56 1010.76 1008.96 1009.44 1010.36 1010.12 1009.88 1010.52 1011.24 1011.40 1011.24 1010.88 1010.52 1010.20 1010.52 1010.72 1010.40 1010.36 1010.40 1010.48 1010.36 1010.36 1010.84 1011.28 1011.24 1011.28 1011.36 1011.40 1011.64 1011.76 1012.08 1012.12 1012.12 1012.16 1012.24 1012.52 1012.64 1012.64 1012.88 1013.12 1013.24 1013.36 1013.28 1013.36 1013.44 1013.56 1013.52 1013.36 1013.28 1013.28
1014.24 1014.24 1015.56 1014.88 1014.48 1015.84 1013.64 1010.00 1008.40 1008.80 1008.76 1008.44 1008.88 1010.36 1011.36 1009.08 1009.48 1009.84 1009.36 1009.44 1010.00 1010.96 1011.28 1011.00 1010.64 1010.00 1010.24 1010.60 1010.16 1010.04 1010.28 1010.32 1010.40 1010.64 1010.68 1010.92 1011.12 1011.12 1011.24 1011.52 1011.76 1011.92 1012.00 1012.08 1012.12 1012.00 1011.88 1012.08 1012.12 1012.28 1012.48 1012.72 1013.04 1013.24 1013.20 1013.12 1013.28 1013.28 1013.44 1013.28 1013.12 1013.12 1013.00
1014.56 1014.68 1015.36 1015.32 1015.64 1013.36 1010.84 1009.32 1008.00 1008.44 1009.16 1008.64 1009.16 1010.84 1012.32 1008.84 1008.04 1009.36 1009.60 1009.60 1010.20 1010.40 1010.68 1010.92 1010.48 1010.28 1011.12 1010.92 1009.44 1009.64 1010.00 1010.12 1010.20 1010.36 1010.56 1010.68 1010.80 1010.96 1011.08 1011.16 1011.32 1011.48 1011.60 1011.60 1011.64 1011.80 1011.88 1011.88 1011.88 1012.12 1012.32 1012.64 1013.04 1013.12 1012.96 1012.92 1013.08 1013.20 1013.08 1012.96 1012.92 1012.76 1012.52
1013.52 1013.84 1014.92 1015.04 1013.40 1012.04 1009.52 1008.52 1007.76 1008.64 1009.32 1009.04 1009.96 1014.04 1013.28 1008.48 1008.36 1009.08 1009.72 1009.56 1009.96 1010.80 1010.80 1010.72 1010.24 1010.12 1011.20 1010.56 1009.16 1009.08 1009.48 1009.52 1009.76 1009.92 1010.28 1010.64 1010.72 1010.76 1010.80 1010.88 1010.80 1010.80 1011.00 1011.52 1011.68 1011.64 1011.60 1011.24 1011.36 1011.88 1012.20 1012.60 1012.84 1012.80 1012.64 1012.76 1013.00 1012.96 1012.72 1012.48 1012.40 1012.40 1012.36
1014.00 1014.28 1014.24 1014.72 1013.36 1011.20 1009.60 1008.76 1008.36 1009.56 1009.16 1009.56 1012.68 1014.68 1010.40 1007.80 1007.92 1008.64 1008.88 1008.96 1009.84 1010.36 1010.48 1010.32 1009.96 1010.00 1009.08 1009.24 1009.16 1009.40 1009.36 1009.80 1009.96 1010.12 1010.16 1010.12 1010.16 1010.24 1010.44 1010.32 1010.44 1010.84 1010.92 1010.80 1010.64 1010.68 1010.68 1010.84 1011.36 1011.76 1012.20 1012.56 1012.64 1012.48 1012.44 1012.72 1012.72 1012.36 1012.08 1012.16 1012.28 1012.28 1012.28
1013.56 1014.24 1014.48 1013.76 1012.88 1009.92 1007.72 1008.40 1008.88 1008.72 1009.80 1012.72 1013.12 1007.88 1007.44 1006.80 1007.28 1008.64 1008.88 1009.16 1010.04 1009.96 1009.52 1009.60 1008.80 1009.00 1009.00 1009.44 1009.52 1009.24 1009.28 1009.00 1009.28 1009.64 1009.92 1010.08 1010.20 1010.16 1010.08 1010.04 1010.24 1010.40 1010.48 1010.64 1010.64 1010.68 1010.64 1010.92 1011.28 1011.68 1012.04 1012.32 1012.20 1012.20 1012.40 1012.44 1012.00 1011.68 1011.88 1012.00 1012.08 1012.16 1012.16
1015.28 1015.08 1014.56 1014.12 1015.04 1009.12 1008.40 1008.36 1009.40 1008.84 1010.24 1008.52 1006.44 1007.36 1008.24 1007.72 1007.00 1008.00 1008.88 1008.80 1009.44 1009.56 1009.84 1009.48 1009.36 1008.92 1009.12 1008.96 1009.12 1009.24 1009.40 1009.36 1009.28 1009.52 1009.84 1009.92 1009.80 1009.72 1009.92 1010.12 1010.00 1010.08 1010.36 1010.48 1010.44 1010.20 1010.48 1010.88 1011.20 1011.52 1011.80 1011.92 1011.84 1011.96 1012.20 1011.76 1011.40 1011.60 1011.80 1011.92 1011.96 1012.00 1012.00
1011.92 1013.80 1014.28 1012.96 1009.80 1008.56 1008.12 1007.64 1008.80 1008.16 1006.84 1005.84 1006.44 1006.20 1007.08 1008.08 1007.88 1008.04 1008.44 1008.88 1008.72 1008.92 1008.48 1009.20 1009.32 1009.28 1009.12 1009.12 1009.16 1009.48 1009.60 1009.60 1009.64 1009.76 1009.72 1009.68 1009.60 1009.60 1009.52 1009.32 1009.44 1009.84 1010.04 1010.08 1010.20 1010.40 1010.64 1010.84 1011.12 1011.32 1011.52 1011.56 1011.56 1011.76 1011.64 1011.16 1011.40 1011.56 1011.68 1011.72 1011.80 1011.84 1011.76
1011.32 1011.00 1010.20 1008.64 1008.96 1009.20 1008.80 1008.60 1007.48 1007.36 1006.72 1006.84 1006.40 1005.68 1005.68 1006.80 1007.64 1007.88 1007.72 1007.80 1008.64 1008.52 1008.40 1008.88 1009.00 1009.12 1009.08 1008.64 1008.92 1008.64 1008.56 1009.16 1009.40 1009.44 1009.32 1009.40 1009.32 1009.32 1009.32 1009.28 1009.48 1009.76 1009.84 1009.96 1010.24 1010.44 1010.60 1010.72 1010.92 1011.08 1011.24 1011.28 1011.32 1011.56 1011.16 1011.08 1011.32 1011.36 1011.44 1011.52 1011.60 1011.60 1011.48
1010.12 1010.04 1009.68 1009.76 1009.28 1008.64 1008.28 1007.92 1008.04 1007.48 1007.24 1007.12 1006.76 1006.64 1006.44 1007.08 1006.96 1007.32 1006.76 1007.52 1008.08 1008.60 1008.60 1008.80 1009.28 1008.60 1008.60 1008.76 1009.08 1009.04 1009.20 1009.24 1009.44 1009.72 1009.76 1009.72 1009.64 1009.64 1009.68 1009.64 1009.64 1009.72 1009.96 1010.20 1010.32 1010.32 1010.44 1010.60 1010.80 1011.04 1011.20 1011.20 1011.20 1011.00 1010.76 1010.96 1011.08 1011.24 1011.40 1011.44 1011.44 1011.36 1011.28
1011.00 1010.84 1009.28 1009.52 1008.96 1008.88 1008.56 1008.28 1007.76 1007.40 1007.20 1006.84 1006.68 1006.60 1006.60 1006.72 1007.12 1007.36 1007.16 1007.24 1007.68 1008.00 1008.32 1008.08 1008.16 1008.68 1009.00 1008.96 1009.04 1009.16 1009.20 1009.12 1009.00 1009.16 1009.32 1009.32 1009.36 1009.36 1009.28 1009.36 1009.72 1009.84 1009.96 1010.16 1010.20 1010.20 1010.16 1010.44 1010.76 1010.88 1010.96 1011.00 1010.84 1010.80 1010.96 1011.08 1011.24 1011.32 1011.40 1011.44 1011.40 1011.24 1011.08
1010.88 1010.32 1009.40 1009.24 1008.92 1008.88 1008.76 1008.64 1007.80 1007.16 1006.84 1006.72 1006.80 1006.64 1006.60 1006.92 1007.36 1007.12 1007.32 1007.48 1007.96 1008.24 1008.20 1008.24 1008.28 1008.52 1008.80 1008.72 1008.72 1008.84 1008.92 1008.88 1009.00 1009.20 1009.36 1009.48 1009.80 1010.12 1010.16 1010.00 1009.88 1010.08 1010.16 1010.12 1010.16 1010.28 1010.24 1010.24 1010.36 1010.44 1010.60 1010.84 1010.96 1011.08 1011.04 1011.08 1011.20 1011.28 1011.36 1011.32 1011.24 1011.04 1010.88
1010.48 1010.00 1009.36 1008.92 1008.72 1008.24 1007.80 1007.84 1007.72 1007.60 1007.32 1006.80 1007.32 1007.40 1007.20 1007.12 1006.96 1007.48 1007.68 1007.56 1007.44 1007.56 1007.52 1007.96 1007.88 1008.32 1008.72 1008.80 1008.88 1008.96 1009.04 1009.20 1009.12 1009.00 1009.12 1009.72 1009.84 1009.88 1009.84 1009.84 1009.76 1009.80 1010.00 1010.20 1010.20 1010.16 1009.84 1010.16 1010.60 1010.68 1010.84 1010.96 1011.04 1010.92 1010.80 1010.88 1011.00 1010.96 1010.92 1010.80 1010.76 1010.72 1010.72
1010.68 1010.24 1009.12 1008.80 1009.60 1009.40 1007.88 1007.72 1007.52 1007.28 1007.48 1007.00 1007.28 1007.56 1007.48 1007.16 1007.16 1007.24 1007.28 1007.92 1008.16 1007.80 1007.84 1007.76 1008.00 1008.20 1008.64 1009.00 1009.16 1008.84 1008.92 1008.92 1009.04 1009.20 1009.40 1009.64 1009.72 1009.68 1009.68 1009.64 1009.72 1009.80 1009.88 1009.92 1010.00 1010.04 1010.20 1010.44 1010.44 1010.60 1010.64 1010.64 1010.56 1010.44 1010.52 1010.52 1010.64 1010.68 1010.56 1010.48 1010.52 1010.48 1010.44
1011.60 1009.44 1008.64 1008.76 1008.56 1007.60 1007.20 1007.12 1007.12 1007.28 1007.52 1007.20 1006.72 1006.96 1007.00 1007.44 1007.28 1007.32 1007.32 1007.96 1008.24 1008.12 1008.28 1008.28 1007.92 1008.16 1008.36 1008.56 1008.88 1008.68 1008.60 1008.60 1008.96 1009.12 1009.20 1009.20 1009.36 1009.56 1009.64 1009.64 1009.68 1009.68 1009.68 1009.84 1009.96 1010.20 1010.40 1010.40 1010.36 1010.40 1010.44 1010.40 1010.32 1010.32 1010.40 1010.52 1010.60 1010.60 1010.56 1010.48 1010.52 1010.48 1010.44
1009.96 1009.04 1008.72 1008.84 1008.56 1007.92 1007.12 1007.08 1007.36 1007.60 1007.72 1007.96 1007.48 1007.16 1007.36 1007.32 1007.44 1007.52 1007.04 1007.08 1007.48 1008.12 1008.08 1008.16 1008.00 1007.76 1008.08 1008.28 1008.40 1008.16 1008.32 1008.68 1008.88 1008.92 1009.16 1009.28 1009.24 1009.32 1009.56 1009.52 1009.64 1009.76 1009.88 1009.92 1010.00 1010.04 1010.16 1010.24 1010.32 1010.40 1010.32 1010.32 1010.24 1010.28 1010.48 1010.40 1010.40 1010.36 1010.44 1010.52 1010.56 1010.52 1010.48
1009.92 1008.60 1008.96 1009.00 1008.84 1007.92 1007.60 1007.44 1007.44 1007.52 1007.68 1007.88 1007.80 1007.32 1007.32 1007.48 1007.64 1007.52 1006.92 1007.40 1007.20 1007.12 1007.80 1007.92 1008.12 1008.32 1008.00 1008.20 1008.48 1008.32 1008.40 1008.60 1008.88 1008.88 1008.96 1009.08 1009.20 1009.20 1009.24 1009.36 1009.36 1009.52 1009.76 1009.96 1010.04 1010.16 1010.24 1010.28 1010.32 1010.40 1010.36 1010.28 1010.44 1010.60 1010.48 1010.32 1010.32 1010.16 1010.24 1010.36 1010.52 1010.60 1010.60
Wind_Speed
1 1 2 0 3 1 3 2 2 1 3 9 6 1 1 1 4 2 0 6 4 8 3 2 3 3 1 5 8 10 10 10 9 10 10 10 9 8 7 7 7 5 3 3 4 5 5 4 3 5 5 5 5 4 3 3 2 2 2 2 2 3 4
1 1 1 4 4 3 8 1 5 2 3 6 4 2 2 4 1 4 2 1 7 5 3 1 1 2 3 5 7 8 9 9 12 11 11 11 11 9 7 6 6 6 5 5 5 5 5 6 6 5 5 5 5 4 4 4 2 2 2 3 3 3 4
2 2 2 7 4 1 3 2 5 2 1 0 3 5 0 0 1 2 2 2 4 5 6 2 4 5 7 6 6 8 10 12 13 12 12 10 6 6 7 8 7 6 6 6 6 6 6 4 4 5 4 3 4 4 4 4 3 3 4 4 4 4 4
0 2 4 4 1 5 5 6 3 0 3 3 3 4 4 4 0 1 4 3 3 6 5 7 8 10 10 9 8 13 15 16 14 13 13 11 10 9 8 8 8 7 7 7 7 7 7 6 5 5 5 4 5 5 3 3 3 4 4 6 5 5 4
2 2 1 6 7 5 2 3 1 1 2 2 4 2 1 2 4 3 1 3 6 7 7 7 10 10 13 15 15 12 12 14 15 14 13 11 10 10 9 9 9 8 7 6 5 5 5 3 2 3 5 6 5 3 4 4 4 4 5 6 5 5 3
4 3 2 2 6 7 9 8 7 8 7 3 1 3 2 2 2 3 3 7 7 10 3 9 8 7 11 14 14 14 13 13 13 12 11 10 10 9 9 9 8 7 5 4 3 3 2 3 4 6 5 4 5 5 4 4 4 5 6 6 5 5 3
4 2 3 3 4 2 3 5 3 6 3 7 4 1 3 1 0 5 3 0 8 6 2 4 4 6 11 12 10 10 10 12 12 10 8 7 9 11 10 9 8 6 5 5 6 6 6 6 6 5 4 5 5 5 4 5 5 6 6 7 5 3 4
6 4 2 2 3 5 4 3 3 5 4 5 8 5 5 7 2 0 1 1 6 4 1 3 4 4 5 6 10 13 10 9 8 8 8 9 8 6 6 5 4 4 4 4 4 5 5 5 5 6 6 4 4 4 5 5 6 7 6 6 5 4 4
4 5 2 1 3 2 1 2 1 2 4 5 3 5 0 1 7 7 6 6 4 2 3 3 1 3 6 10 10 9 10 7 8 8 7 8 8 8 7 6 5 5 5 5 6 6 6 6 6 5 5 6 5 6 5 5 6 6 6 5 5 5 4
6 4 1 6 6 7 1 0 2 1 6 8 4 1 1 3 2 4 2 5 10 8 4 2 2 3 5 6 6 6 5 7 9 8 8 9 9 9 9 7 6 7 7 6 5 6 6 6 6 6 6 6 6 6 6 5 5 5 6 5 5 5 4
10 11 8 5 3 3 2 1 3 3 2 2 4 5 5 6 3 5 7 5 4 6 3 3 5 5 10 10 8 11 10 8 7 7 9 9 9 10 10 9 7 4 4 7 7 8 8 7 7 7 7 7 6 6 6 6 6 6 6 5 5 5 5
8 6 2 2 1 4 2 4 3 1 4 4 6 5 5 4 8 6 5 7 3 9 8 8 7 8 7 6 6 6 6 10 12 10 8 8 7 5 5 5 7 8 8 7 7 9 8 8 7 7 6 6 7 6 6 6 5 5 5 4 5 5 5
1 3 1 0 1 1 3 4 4 3 3 3 4 4 4 7 5 9 5 6 5 7 8 10 10 10 12 15 14 8 3 4 6 9 11 11 10 9 8 8 7 8 8 8 9 9 9 7 7 8 6 6 5 5 5 6 5 6 5 5 5 5 5
2 0 1 1 3 1 1 0 3 3 6 7 6 5 4 9 6 6 4 4 11 9 8 8 7 6 9 5 4 5 9 12 11 11 11 11 11 11 11 9 9 8 8 8 10 9 7 8 8 8 6 6 6 6 7 6 6 6 4 6 6 5 5
0 2 2 2 2 5 1 2 2 1 2 2 4 2 1 2 5 7 6 5 9 9 10 11 4 2 3 3 7 10 10 11 13 13 12 12 12 11 9 7 8 8 8 8 8 8 9 9 10 8 7 7 6 6 7 6 6 6 5 6 6 5 6
1 1 1 0 2 2 1 2 3 4 2 2 3 2 5 4 5 2 0 2 7 10 2 2 0 4 7 9 8 7 8 10 11 13 12 12 11 10 10 9 8 8 9 9 10 11 10 10 9 7 7 7 6 8 7 7 8 6 5 6 5 5 6
2 2 1 2 3 2 4 7 9 8 4 2 0 1 2 6 3 2 4 7 7 5 2 3 3 6 6 5 8 6 5 9 12 14 13 12 11 11 10 9 10 10 11 12 13 11 9 10 9 9 8 6 8 8 7 9 6 5 6 6 5 6 6
2 1 3 2 1 3 6 7 6 7 3 5 4 4 5 6 6 6 7 8 4 2 2 8 7 9 9 12 11 9 13 12 9 8 10 12 12 9 8 9 11 11 10 9 10 11 12 11 10 9 8 8 9 7 7 5 6 7 6 5 5 6 5
1 1 2 0 5 8 8 4 3 1 0 3 5 6 6 6 5 4 7 9 9 11 7 4 4 4 5 4 1 6 6 10 13 15 12 9 8 9 9 9 9 10 11 11 9 8 10 10 7 6 6 7 7 5 6 7 6 6 5 5 5 5 6
2 2 3 1 6 5 5 9 5 2 1 0 1 5 6 8 8 8 7 12 7 2 4 4 2 1 1 2 2 1 3 5 8 9 9 10 9 10 11 13 12 11 11 13 13 13 10 6 6 7 8 7 6 9 5 6 6 5 5 5 6 5 6
4 4 7 8 3 6 3 2 2 5 5 4 4 5 5 5 6 9 5 5 3 3 0 1 1 3 3 2 3 1 4 5 6 10 12 12 13 13 12 12 13 12 12 11 12 8 6 8 7 8 8 6 7 7 6 7 6 5 4 6 7 6 6
4 4 1 2 3 6 6 10 7 2 1 3 5 3 5 4 6 6 6 6 5 4 3 3 4 3 5 2 6 4 5 6 7 3 2 3 6 6 5 4 3 5 7 6 6 7 7 8 9 7 7 6 6 6 8 7 5 6 5 7 7 6 7
3 1 3 4 4 7 8 8 9 2 3 7 6 2 6 7 6 8 7 5 6 8 9 6 4 5 2 6 7 5 6 6 7 7 6 6 7 7 7 9 10 8 9 10 9 6 6 8 9 8 7 7 6 8 8 7 5 6 8 8 7 7 8
3 4 2 6 4 3 3 10 7 5 4 5 3 4 5 3 3 6 7 7 9 7 5 6 6 8 6 7 8 5 9 8 9 10 9 7 6 7 8 7 8 9 8 5 5 9 10 12 9 8 7 7 8 8 9 6 5 8 9 9 8 6 6
3 5 4 3 5 5 7 7 7 2 3 1 3 8 8 4 6 8 8 8 9 9 9 8 7 7 5 3 2 2 6 4 3 3 4 7 8 8 9 10 9 7 8 10 12 13 12 10 6 6 7 7 9 8 7 5 8 10 9 6 5 6 5
6 6 5 8 4 6 7 4 4 5 5 4 8 10 4 7 7 5 7 7 7 9 11 9 6 6 5 2 0 3 6 8 6 6 7 5 5 5 6 7 7 8 8 8 9 8 8 6 6 7 7 8 8 7 6 8 11 9 5 5 4 5 5
2 1 1 3 3 3 2 6 2 1 3 8 8 2 0 4 6 9 5 8 9 8 7 6 3 3 3 3 1 2 4 5 7 8 8 8 9 9 8 7 8 8 7 9 11 12 6 5 6 6 8 8 8 6 7 11 9 5 4 4 4 5 5
3 4 3 4 7 2 3 6 7 7 10 3 7 7 2 1 4 7 7 5 9 10 9 9 5 2 2 1 1 1 2 3 2 3 5 6 6 5 8 9 8 7 9 8 8 4 3 4 6 6 8 8 7 7 10 10 4 3 4 5 4 5 5
4 5 7 7 4 6 6 4 4 4 6 2 5 4 8 8 5 4 7 9 7 9 8 7 7 2 3 3 3 4 4 5 5 6 8 9 9 9 9 11 6 6 10 10 6 4 4 5 6 6 7 7 7 7 8 5 4 4 5 4 4 5 6
3 4 6 4 5 3 7 5 3 4 2 1 1 2 6 1 2 8 8 8 9 6 5 8 3 4 4 3 1 3 2 2 4 3 4 5 6 6 5 5 4 5 4 3 4 6 5 5 5 5 6 7 8 8 5 3 3 3 3 4 5 6 6
4 4 2 5 5 7 5 7 4 0 0 0 1 2 2 4 5 3 2 8 9 9 8 7 7 4 3 3 2 2 2 4 5 5 6 7 7 8 10 6 1 3 5 6 6 6 7 3 5 5 7 7 8 5 4 3 3 3 4 5 6 6 7
1 4 4 6 7 6 7 6 3 0 1 3 3 1 3 6 3 3 5 8 6 6 6 5 7 5 4 4 3 3 4 5 4 4 6 6 4 3 2 2 1 2 3 6 6 4 5 5 6 6 6 5 4 5 5 5 4 3 4 5 6 7 7
4 5 6 6 6 4 4 2 1 2 1 4 4 4 6 7 8 6 4 2 6 6 7 6 6 6 3 4 4 3 3 4 5 5 4 3 3 3 1 1 3 6 4 4 4 6 8 2 2 2 2 2 3 4 4 4 3 4 5 5 5 6 5
3 1 2 1 1 2 4 2 2 3 3 6 5 5 5 7 8 6 8 5 4 4 5 7 6 7 5 4 5 5 4 4 4 3 3 3 2 2 2 3 3 3 3 5 5 5 3 1 1 1 2 2 2 2 3 4 4 5 5 4 4 5 4
5 8 8 5 1 3 6 6 4 4 3 5 11 7 8 5 6 8 10 8 4 4 2 3 6 6 6 5 5 3 4 4 4 3 2 2 2 3 4 4 4 5 5 3 3 2 2 1 2 2 2 2 1 2 3 3 3 4 3 3 4 5 4
8 10 10 3 3 3 2 4 5 3 1 2 2 4 3 8 8 6 8 9 9 4 3 2 3 7 6 6 6 4 2 2 2 2 2 2 2 3 4 4 4 2 1 1 2 2 1 2 2 2 2 2 2 2 3 2 1 1 2 3 4 5 5
5 9 5 4 5 6 5 3 1 2 1 1 2 5 6 6 5 5 8 5 6 11 8 5 4 2 3 4 2 2 1 1 3 4 4 3 3 3 3 3 3 2 1 1 1 1 1 2 2 3 4 3 2 2 3 3 3 3 3 3 4 5 5
Wind_Direction
97 175 159 291 109 183 241 107 190 217 145 100 95 86 26 81 50 260 215 322 307 298 341 341 5 56 141 169 174 171 174 173 170 184 194 201 200 196 193 198 199 198 189 213 214 194 190 193 191 200 200 194 194 196 196 219 241 281 273 261 270 282 274
340 353 153 103 42 134 93 163 219 137 126 124 123 173 346 57 142 261 45 246 305 26 280 311 29 76 159 174 178 174 170 169 183 195 196 200 198 196 192 195 198 189 190 201 208 208 194 192 198 205 213 205 206 203 192 193 231 266 279 262 268 267 281
284 354 51 33 19 51 156 194 165 101 231 207 340 90 23 171 266 284 317 285 260 179 252 335 256 191 199 193 182 169 180 186 196 196 202 202 187 172 179 195 195 199 201 208 204 199 205 213 217 211 213 198 203 218 219 191 222 227 245 275 265 266 258
261 16 77 173 256 357 44 87 59 68 101 158 134 198 172 117 209 58 289 38 252 207 224 201 226 198 183 177 186 198 193 194 191 195 196 192 184 183 185 191 197 200 205 207 199 193 200 211 216 216 202 193 212 221 215 226 261 287 292 275 260 262 252
51 184 191 200 156 124 34 50 341 11 28 209 104 33 75 184 168 178 191 314 278 258 212 186 222 190 186 181 193 198 198 198 198 195 192 187 181 181 187 188 195 202 207 204 206 203 207 213 236 202 191 200 214 206 215 236 234 265 269 259 258 263 280
203 230 243 201 179 174 164 157 196 165 124 126 132 259 6 72 104 203 137 237 267 270 189 207 218 194 186 198 189 194 201 198 196 196 194 180 179 185 184 190 193 199 202 186 192 190 183 203 223 211 216 207 226 214 213 219 234 251 247 259 252 267 278
188 236 271 265 187 123 161 145 192 144 129 107 98 156 266 22 350 104 154 126 270 241 242 239 242 177 195 195 190 202 202 201 198 196 184 176 180 177 183 188 193 195 188 182 182 179 192 203 211 213 213 212 214 222 218 218 218 248 236 247 258 263 289
303 315 300 70 88 111 82 26 89 119 168 181 168 176 177 147 150 17 340 218 250 284 310 285 253 213 201 192 191 198 200 197 193 183 170 170 174 188 184 186 176 163 159 159 157 176 203 220 221 221 222 221 226 234 231 225 229 247 259 254 263 278 280
339 345 350 11 333 56 121 175 192 114 93 76 129 108 78 120 216 175 132 236 284 274 325 326 337 167 180 196 207 195 193 188 186 177 170 171 176 176 181 182 171 149 148 169 178 190 204 215 221 225 224 222 222 234 237 232 236 249 257 259 256 257 260
163 195 230 250 248 226 223 60 82 189 125 137 120 166 107 190 284 118 160 253 253 275 306 348 315 237 224 231 207 205 196 178 177 171 171 175 176 184 183 174 157 176 187 181 177 202 216 218 218 219 222 220 220 230 239 227 234 250 255 251 240 248 245
179 199 210 255 118 73 163 216 135 171 56 85 92 100 106 205 203 183 234 190 291 314 296 279 254 219 218 215 200 199 194 178 169 171 174 175 179 184 183 180 178 161 171 187 194 210 215 217 216 218 214 214 216 225 242 242 230 235 246 242 245 242 254
193 169 188 192 163 168 211 139 194 165 147 153 121 156 218 165 102 278 262 200 187 253 265 257 247 236 243 248 232 224 191 183 177 172 165 171 180 181 163 162 172 184 188 189 201 215 217 222 220 223 220 209 209 213 229 240 238 232 240 235 243 240 242
238 197 205 64 97 125 172 174 144 165 195 142 171 228 191 143 197 227 251 173 198 250 240 247 228 209 209 212 212 205 183 127 133 153 169 178 182 181 180 190 186 182 186 194 207 214 218 216 217 219 215 218 220 239 237 245 243 240 229 222 238 232 228
96 75 276 285 126 61 68 191 193 176 160 201 197 228 185 185 218 225 243 178 229 242 257 250 242 216 217 216 148 136 159 172 168 170 175 179 182 185 192 192 190 193 192 196 207 211 213 210 215 211 210 217 222 225 236 237 239 246 200 227 227 230 237
7 314 340 77 128 131 192 274 301 253 161 204 231 239 229 177 303 284 260 234 270 261 230 251 275 234 130 120 180 188 177 166 172 175 180 181 185 192 194 184 193 194 198 205 208 210 213 212 213 205 203 216 222 231 237 240 241 242 200 229 226 229 249
299 316 129 318 43 58 97 304 290 275 252 268 213 180 209 144 219 250 30 259 264 267 271 252 317 158 171 191 191 178 182 177 171 179 182 183 186 190 192 191 188 196 201 207 208 211 211 213 211 203 208 218 221 234 231 232 239 232 214 224 233 240 244
263 258 32 65 38 10 335 281 247 220 203 200 223 286 186 209 177 177 225 234 225 248 288 190 220 188 203 207 199 189 176 182 180 182 181 182 187 194 187 186 196 200 203 206 208 209 209 210 206 210 203 206 223 231 227 233 233 230 228 227 234 250 257
240 310 14 34 93 236 232 234 182 142 173 192 208 249 228 234 160 204 195 229 250 271 233 208 209 193 210 210 211 189 173 171 187 190 185 186 191 188 184 191 200 205 205 211 212 209 206 207 203 204 196 205 224 225 229 237 224 232 229 245 234 252 265
212 59 61 142 235 231 242 296 274 273 354 166 197 237 252 254 241 276 286 273 260 234 210 250 288 273 324 347 168 197 192 180 177 182 185 187 181 181 187 202 212 207 205 209 211 216 222 214 207 197 213 219 231 242 232 237 232 230 230 244 256 255 264
78 74 89 183 240 236 286 285 255 222 158 145 131 294 283 250 224 203 231 247 262 271 231 287 273 196 268 24 61 177 188 180 178 163 184 189 178 184 197 200 206 202 202 204 204 211 212 198 205 199 216 212 213 237 230 232 241 229 233 240 257 266 262
179 200 174 222 301 336 326 346 258 155 206 175 171 239 274 235 193 169 208 249 228 178 243 211 128 126 65 36 329 243 174 172 180 188 189 179 187 196 203 199 204 204 204 203 209 203 188 196 196 210 218 206 215 236 242 243 237 244 229 243 250 251 258
120 126 323 333 294 249 277 242 258 309 198 150 153 120 283 290 241 200 189 217 181 150 145 145 153 103 60 341 284 233 193 180 181 202 171 196 211 212 206 203 219 210 218 227 229 205 197 200 207 209 208 205 212 230 242 247 239 250 233 242 242 243 250
83 81 180 206 196 241 212 244 247 232 187 130 128 67 293 265 212 202 188 203 185 167 155 172 146 85 139 243 251 245 173 179 183 182 203 190 194 197 193 193 201 203 208 210 212 203 201 214 215 202 201 196 202 228 240 244 235 248 248 244 238 235 241
186 149 175 246 205 228 239 234 259 239 165 109 64 291 277 258 237 181 172 186 181 174 165 154 136 138 176 237 252 205 185 178 186 187 189 187 187 197 200 207 206 207 205 186 199 206 209 221 205 190 191 188 207 223 239 236 236 244 246 240 235 237 245
175 166 249 339 302 269 251 249 243 212 127 105 156 213 232 239 195 186 179 187 174 159 157 167 155 217 177 202 228 194 155 135 182 194 180 193 186 191 196 208 203 205 201 199 207 209 214 214 183 179 176 189 214 224 233 228 240 242 243 243 236 238 245
188 193 188 230 247 237 215 243 188 168 111 204 211 230 214 161 189 188 173 160 169 171 169 181 194 180 218 256 286 141 167 185 192 180 185 183 211 229 217 214 197 203 208 214 226 233 226 191 174 168 174 197 218 225 226 235 242 245 246 242 237 243 243
63 71 133 326 306 283 193 128 70 168 182 231 204 162 231 195 165 155 175 162 174 166 186 209 160 220 245 257 222 196 168 165 178 184 179 189 199 209 213 230 222 197 206 217 219 224 203 177 170 170 174 202 218 218 222 237 242 249 254 247 244 247 253
195 162 165 195 210 225 253 173 188 213 207 192 170 145 114 208 155 159 151 179 175 182 174 182 210 239 224 286 183 110 205 220 222 195 207 212 222 228 224 221 212 192 213 223 229 224 176 176 168 171 180 206 215 212 231 241 243 248 250 251 251 257 254
152 203 213 245 241 241 261 258 255 239 277 237 197 169 157 161 207 182 158 177 181 188 174 170 164 165 220 211 185 170 209 204 202 201 213 212 216 217 216 226 218 202 212 219 215 206 200 177 176 184 193 202 214 222 242 234 227 233 247 246 241 258 259
273 249 214 290 307 311 302 280 248 259 297 280 102 184 135 238 154 168 169 167 163 161 149 140 211 202 193 187 222 247 286 250 249 260 280 272 260 256 273 273 241 216 216 202 191 215 220 196 188 190 197 197 210 226 237 220 206 203 244 262 268 261 261
29 289 319 332 299 300 292 299 302 251 232 251 106 105 122 144 140 115 95 151 158 163 158 168 169 187 159 182 242 240 278 271 254 242 240 248 238 230 233 252 239 185 181 193 206 207 227 201 180 196 200 209 222 248 273 291 284 267 273 263 266 272 270
178 240 277 286 282 263 266 254 278 118 27 27 18 71 132 130 132 121 133 121 115 134 144 158 141 159 173 160 206 228 231 242 259 257 251 261 296 336 350 347 185 167 192 208 214 209 233 215 193 196 201 212 234 253 267 271 279 277 264 256 259 269 271
280 292 282 290 307 313 328 345 211 235 186 98 70 90 111 118 107 96 71 64 145 151 152 151 129 132 196 194 184 192 242 261 269 262 269 278 267 279 259 234 178 192 199 207 206 208 231 230 143 174 200 227 243 248 269 262 236 235 250 254 261 267 266
319 223 252 144 33 293 298 299 245 196 197 126 118 108 102 116 118 121 103 59 40 83 131 142 134 142 177 203 171 196 204 218 233 256 261 256 231 214 208 172 169 172 185 196 214 234 266 26 90 72 17 352 348 277 237 244 222 233 248 267 283 281 266
284 286 272 231 184 223 227 218 221 213 212 157 142 160 152 159 140 138 121 111 84 93 89 172 142 153 164 195 187 200 210 222 215 216 210 212 202 172 178 161 174 189 201 201 211 271 11 64 66 75 34 290 230 235 244 246 226 240 280 309 304 296 297
259 261 280 234 180 239 253 232 226 258 302 320 216 148 152 153 161 162 143 150 143 165 172 200 196 163 169 177 169 189 229 217 190 183 179 174 184 171 167 174 174 165 165 178 188 199 133 109 120 150 196 237 242 251 237 241 209 256 311 293 293 294 300
280 299 303 249 244 273 285 273 215 240 263 167 221 182 173 169 190 178 148 161 162 151 164 185 218 203 167 177 180 182 199 254 223 199 191 173 175 168 178 157 172 172 150 139 115 111 154 197 181 171 185 228 263 330 341 355 2 31 3 13 314 309 309